Hebron, NE

1:07 AM CDT on May 29, 2017 (GMT -0500)
Hebron Municipal

Weather History for KHJH - May, 2014

Change the Weather History Date:

Wednesday, May 7, 2014

  Actual Average Record
Temperature  
Mean Temperature 78 °F -  
Max Temperature 95 °F 71 °F 95 °F (2014)
Min Temperature 62 °F 47 °F 32 °F (1976)
Cooling Degree Days 14    
Growing Degree Days 28 (Base 50)    
Moisture  
Dew Point 49 °F    
Average Humidity 45    
Maximum Humidity 82    
Minimum Humidity 8    
Precipitation  
Precipitation 0.00 in - - ()
Sea Level Pressure  
Sea Level Pressure 29.51 in    
Wind  
Wind Speed 11 mph (SSW)    
Max Wind Speed 26 mph    
Max Gust Speed 44 mph    
Visibility 10 miles    
Events Thunderstorm    
Averages and records for this station are not official NWS values.
T = Trace of Precipitation, MM = Missing Value Source: NWS Daily Summary

Daily Weather History Graph

Daily Weather History Graph

Search for Another Location

Airport or City:

Trip Planner

Search our weather history database for the weather conditions in past years. The results will help you decide how hot, cold, wet, or windy it might be!

Date:

Astronomy

May. 07, 2014 Rise Set
Actual Time 6:22 AM CDT 8:31 PM CDT
Civil Twilight 5:52 AM CDT 9:01 PM CDT
Nautical Twilight 5:16 AM CDT 9:38 PM CDT
Astronomical Twilight 4:36 AM CDT 10:18 PM CDT
Moon 1:37 PM CDT (5/7) 2:23 AM CDT (5/7)
Length of Visible Light 15h 08m
Length of Day
14h 08m
First Quarter, 55% of the Moon is Illuminated
May 7
First Quarter
May 14
Full
May 21
Last Quarter
May 28
New
Jun 5
First Quarter

Hourly Weather History & Observations

Time (CDT) Temp. Heat Index Dew Point Humidity Pressure Visibility Wind Dir Wind Speed Gust Speed Precip Events Conditions
12:15 AM 62.1 °F - 56.1 °F 81% 29.46 in 10.0 mi Calm Calm - N/A   Clear
12:30 AM 66.2 °F - 57.2 °F 73% 29.46 in 10.0 mi South 6.9 mph - N/A   Clear
1:15 AM 71.6 °F - 57.2 °F 60% 29.47 in 10.0 mi South 10.4 mph - N/A   Clear
1:35 AM 72.7 °F - 58.1 °F 60% 29.47 in 10.0 mi South 10.4 mph 18.4 mph N/A   Clear
1:55 AM 72.7 °F - 58.6 °F 61% 29.47 in 10.0 mi South 10.4 mph - N/A   Clear
2:15 AM 73.8 °F - 59.2 °F 60% 29.48 in 10.0 mi South 12.7 mph 18.4 mph N/A   Clear
2:35 AM 72.9 °F - 59.5 °F 63% 29.48 in 10.0 mi South 15.0 mph - N/A   Clear
2:55 AM 72.9 °F - 59.9 °F 64% 29.48 in 10.0 mi South 11.5 mph 17.3 mph N/A   Clear
3:15 AM 71.6 °F - 59.9 °F 66% 29.48 in 10.0 mi South 11.5 mph - N/A   Clear
3:35 AM 70.5 °F - 59.9 °F 69% 29.48 in 10.0 mi South 10.4 mph - N/A   Clear
3:55 AM 69.8 °F - 59.9 °F 71% 29.49 in 10.0 mi South 9.2 mph - N/A   Clear
4:15 AM 68.4 °F - 59.5 °F 73% 29.49 in 10.0 mi South 9.2 mph - N/A   Clear
4:35 AM 68.0 °F - 59.5 °F 74% 29.50 in 10.0 mi South 9.2 mph - N/A   Clear
4:55 AM 66.6 °F - 59.4 °F 78% 29.50 in 10.0 mi South 8.1 mph - N/A   Clear
5:15 AM 66.2 °F - 59.5 °F 79% 29.50 in 10.0 mi South 8.1 mph - N/A   Clear
5:35 AM 66.0 °F - 59.4 °F 79% 29.50 in 10.0 mi South 6.9 mph - N/A   Clear
5:55 AM 65.8 °F - 59.4 °F 80% 29.50 in 10.0 mi South 6.9 mph - N/A   Clear
6:15 AM 65.7 °F - 59.4 °F 80% 29.51 in 10.0 mi South 8.1 mph - N/A   Clear
6:35 AM 65.7 °F - 59.5 °F 81% 29.51 in 10.0 mi South 8.1 mph - N/A   Clear
6:55 AM 65.3 °F - 59.5 °F 82% 29.52 in 10.0 mi South 6.9 mph - N/A   Clear
7:15 AM 65.7 °F - 59.9 °F 82% 29.51 in 10.0 mi South 10.4 mph - N/A   Clear
7:35 AM 67.3 °F - 60.1 °F 78% 29.50 in 10.0 mi South 12.7 mph - N/A   Clear
7:55 AM 68.7 °F - 60.4 °F 75% 29.51 in 10.0 mi South 13.8 mph 18.4 mph N/A   Clear
8:15 AM 70.0 °F - 60.3 °F 71% 29.51 in 10.0 mi South 17.3 mph 24.2 mph N/A   Clear
8:35 AM 71.1 °F - 60.1 °F 68% 29.50 in 10.0 mi South 17.3 mph 24.2 mph N/A   Clear
8:55 AM 73.0 °F - 59.5 °F 62% 29.54 in 10.0 mi SW 13.8 mph 21.9 mph N/A   Clear
9:15 AM 74.3 °F - 58.3 °F 57% 29.52 in 10.0 mi SSW 17.3 mph 27.6 mph N/A   Clear
9:35 AM 75.6 °F - 56.8 °F 52% 29.52 in 10.0 mi SSW 18.4 mph 25.3 mph N/A   Clear
9:55 AM 76.6 °F - 54.9 °F 47% 29.54 in 10.0 mi SW 17.3 mph 24.2 mph N/A   Clear
10:15 AM 77.5 °F - 54.0 °F 44% 29.54 in 10.0 mi SW 15.0 mph 23.0 mph N/A   Clear
10:35 AM 78.4 °F - 52.9 °F 41% 29.54 in 10.0 mi SW 12.7 mph 19.6 mph N/A   Clear
10:55 AM 79.9 °F - 52.2 °F 38% 29.54 in 10.0 mi SSW 11.5 mph 19.6 mph N/A   Clear
11:15 AM 80.8 °F - 51.3 °F 36% 29.54 in 10.0 mi SSW 12.7 mph 20.7 mph N/A   Clear
11:35 AM 82.0 °F - 49.3 °F 32% 29.54 in 10.0 mi SSW 10.4 mph 19.6 mph N/A   Clear
11:55 AM 82.6 °F - 47.1 °F 29% 29.54 in 10.0 mi SSW 11.5 mph 18.4 mph N/A   Clear
12:15 PM 84.2 °F - 44.4 °F 25% 29.54 in 10.0 mi SW 11.5 mph 17.3 mph N/A   Clear
12:35 PM 85.8 °F - 42.8 °F 22% 29.54 in 10.0 mi SSW 11.5 mph 18.4 mph N/A   Clear
12:55 PM 87.8 °F - 42.4 °F 20% 29.52 in 10.0 mi SSW 11.5 mph 20.7 mph N/A   Clear
1:15 PM 89.1 °F - 42.1 °F 19% 29.52 in 10.0 mi SSW 13.8 mph 20.7 mph N/A   Clear
1:35 PM 91.0 °F - 41.7 °F 18% 29.52 in 10.0 mi SSW 16.1 mph 21.9 mph N/A   Clear
1:55 PM 90.3 °F - 40.3 °F 17% 29.52 in 10.0 mi SW 15.0 mph 23.0 mph N/A   Clear
2:15 PM 91.6 °F - 36.3 °F 14% 29.52 in 10.0 mi SSW 13.8 mph 21.9 mph N/A   Clear
2:35 PM 92.1 °F - 32.2 °F 12% 29.52 in 10.0 mi SSW 16.1 mph 29.9 mph N/A   Clear
2:55 PM 94.1 °F - 31.6 °F 11% 29.52 in 10.0 mi SW 16.1 mph 26.5 mph N/A   Clear
3:15 PM 93.6 °F - 27.9 °F 10% 29.51 in 10.0 mi SW 18.4 mph 29.9 mph N/A   Clear
3:35 PM 94.5 °F - 24.1 °F 8% 29.51 in 10.0 mi SW 16.1 mph 28.8 mph N/A   Clear
3:55 PM 94.8 °F - 25.3 °F 8% 29.50 in 10.0 mi WSW 18.4 mph 26.5 mph N/A   Clear
4:15 PM 95.2 °F - 25.3 °F 8% 29.50 in 10.0 mi WSW 19.6 mph 25.3 mph N/A   Clear
4:35 PM 94.1 °F - 25.7 °F 9% 29.50 in 10.0 mi WSW 19.6 mph 26.5 mph N/A   Clear
4:55 PM 94.3 °F - 27.7 °F 9% 29.50 in 10.0 mi SW 16.1 mph 21.9 mph N/A   Clear
5:15 PM 94.5 °F - 26.2 °F 9% 29.50 in 10.0 mi WSW 11.5 mph 20.7 mph N/A   Clear
5:35 PM 94.3 °F - 26.1 °F 9% 29.50 in 10.0 mi WSW 18.4 mph 23.0 mph N/A   Clear
5:55 PM 93.6 °F - 27.7 °F 10% 29.49 in 10.0 mi WSW 15.0 mph 20.7 mph N/A   Clear
6:15 PM 93.7 °F - 27.3 °F 9% 29.49 in 10.0 mi WSW 11.5 mph 19.6 mph N/A   Clear
6:35 PM 91.2 °F - 32.4 °F 12% 29.48 in 10.0 mi WSW 5.8 mph - N/A   Clear
6:55 PM 90.7 °F - 36.5 °F 15% 29.48 in 10.0 mi WSW 3.5 mph - N/A   Clear
7:15 PM 91.6 °F - 35.6 °F 14% 29.48 in 10.0 mi South 3.5 mph - N/A   Clear
7:35 PM 89.2 °F - 39.2 °F 17% 29.49 in 10.0 mi South 18.4 mph 28.8 mph N/A   Clear
7:55 PM 88.0 °F - 44.2 °F 22% 29.50 in 10.0 mi South 16.1 mph 25.3 mph N/A   Clear
8:15 PM 84.7 °F - 47.8 °F 28% 29.51 in 10.0 mi SSE 19.6 mph 27.6 mph N/A   Clear
8:35 PM 83.7 °F 82.4 °F 54.3 °F 36% 29.51 in 5.0 mi South 26.5 mph 43.7 mph N/A   Haze
8:55 PM 81.0 °F 81.0 °F 56.8 °F 44% 29.51 in 10.0 mi South 20.7 mph 33.4 mph N/A Thunderstorm Clear
9:15 PM 79.7 °F - 57.2 °F 46% 29.52 in 10.0 mi South 13.8 mph 26.5 mph N/A   Clear
9:35 PM 78.1 °F - 58.5 °F 51% 29.54 in 10.0 mi South 13.8 mph 20.7 mph N/A   Clear
9:55 PM 77.7 °F - 59.4 °F 53% 29.56 in 10.0 mi South 17.3 mph 25.3 mph N/A Thunderstorm Clear
10:15 PM 77.9 °F - 59.9 °F 54% 29.56 in 10.0 mi South 19.6 mph 27.6 mph N/A Thunderstorm Thunderstorm
10:35 PM 76.8 °F - 60.8 °F 58% 29.56 in 10.0 mi South 23.0 mph 29.9 mph N/A Thunderstorm Clear
10:55 PM 73.8 °F - 61.2 °F 65% 29.57 in 10.0 mi South 23.0 mph 32.2 mph N/A   Clear
11:15 PM 74.1 °F - 58.3 °F 58% 29.58 in 10.0 mi South 23.0 mph 32.2 mph N/A   Clear
11:35 PM 73.8 °F - 58.1 °F 58% 29.59 in 10.0 mi South 20.7 mph 31.1 mph N/A   Clear
11:55 PM 74.5 °F - 59.0 °F 58% 29.59 in 10.0 mi South 23.0 mph 28.8 mph N/A   Clear